Regional Weather Roundup
Issued by NWS

Home | Current Version | Previous Version | Text Only | Print | Product List | Glossary On
Versions: 1 2 3 4 5 6 7 8 9 10 11 12 13 14 15 16 17 18 19 20 21 22 23 24 25 26 27 28 29 30 31 32 33 34 35 36 37 38 39 40 41 42 43 44 45 46 47 48 49 50
000
ASHW40 PHFO 280112
RWRHI

WEATHER ROUNDUP FOR HAWAII
NATIONAL WEATHER SERVICE HONOLULU HI
300 PM HST TUE JUN 27 2017

THIS IS AN AUTOMATED REPORT THAT HAS NOT BEEN QUALITY CONTROLLED.

NOTE..."FAIR" INDICATES FEW OR NO CLOUDS BELOW 12,000 FEET WITH NO
SIGNIFICANT WEATHER AND/OR OBSTRUCTIONS TO VISIBILITY.

* - THESE SITES REPORT LIMITED FIELDS

HIZ001>004-280200-
KAUAI-NIIHAU-

CITY           SKY/WX    TMP DP  RH WIND       PRES   REMARKS
LIHUE APT      CLOUDY    84  68  58 NE15      30.10S
PORT ALLEN*    NOT AVBL
POIPU*         NOT AVBL
PRINCEVILLE*   NOT AVBL
KOKOLE POINT*  NOT AVBL
MOLOAA DAIRY*    N/A     82  41  23 E7G18       N/A
WAIMEA HTS*    NOT AVBL
PUU OPAE*      NOT AVBL
PUU LUA*       NOT AVBL
MAKAHA RIDGE*  NOT AVBL
$$

HIZ005>011-280200-
OAHU-

CITY           SKY/WX    TMP DP  RH WIND       PRES   REMARKS
HONOLULU       CLOUDY    84  64  50 NE15G30   30.05F
KALAELOA       CLOUDY    85  64  49 NE8       30.06S
KANEOHE MCB    PTSUNNY   83  71  67 E9        30.05F
WHEELER FIELD  CLOUDY    80  66  61 E9        30.05F
BELLOWS*       NOT AVBL
KAHUKU*        NOT AVBL
WHEELER*       NOT AVBL
WAIANAE HARBOR NOT AVBL
DILLINGHAM*      N/A     88  66  48 SW9G18      N/A  HX  90
KAHUKU TRN*      N/A     84  70  61 W12G29      N/A
KAWAILOA*        N/A     77  64  65 E8G21       N/A
KII*             N/A     82  72  69 E21G26      N/A
MAKUA RANGE*     N/A     88  68  51 NE5G10      N/A  HX  91
OAHU FOREST NW NOT AVBL
SCHOFIELD BRK*   N/A     81  66  61 MISG        N/A
SCHOFIELD S*   NOT AVBL
WAIANAE VLY*   NOT AVBL
KUAOKALA*      NOT AVBL
HONOULIUULI*   NOT AVBL
MOKUOLOE IS*   NOT AVBL
PALEHUA*       NOT AVBL
WAIAWA PHB*    NOT AVBL
$$

HIZ012>013-280200-
MOLOKAI-

CITY           SKY/WX    TMP DP  RH WIND       PRES   REMARKS
MOLOKAI AIRPT  MOSUNNY   85  66  53 NE16G29   30.05F
KALAUPAPA      NOT AVBL
MAKAPULAPAI*   NOT AVBL
MOLOKAI 1*     NOT AVBL
PUU ALII*      NOT AVBL
$$

HIZ016-280200-
KAHOOLAWE-

CITY           SKY/WX    TMP DP  RH WIND       PRES   REMARKS
KAHOOLAWE*     NOT AVBL
HAKIOAWA*      NOT AVBL
HONOKANAIA*      N/A     86  66  50 NE18G35   29.99
KANELOA*         N/A     79  66  65 E22G36    30.12S
KEALIALALO*    NOT AVBL
LUA MAKIKA*    NOT AVBL
$$

HIZ014>015-280200-
LANAI-

CITY           SKY/WX    TMP DP  RH WIND       PRES   REMARKS
LANAI CITY     PTSUNNY   81  67  62 NE18      30.09F
LANAI 1*       NOT AVBL
$$

HIZ017>028-280200-
MAUI-

CITY           SKY/WX    TMP DP  RH WIND       PRES   REMARKS
KAHULUI        MOSUNNY   86  65  49 NE24G35   30.02F
KAPALUA-W MAUI PTSUNNY   84  64  51 NE14G29   30.06F
HANA AIRPORT   PTSUNNY   84  68  58 E12       30.10F
HANA*            N/A     82 N/A N/A E10G16      N/A
HALEAKALA SUMM   N/A     54  14  20 E26         N/A
MAALAEA BAY*   NOT AVBL
HALEAKALA*     NOT AVBL
KAUPO GAP*     NOT AVBL
KULA 1*          N/A     68  59  74 W5          N/A
$$

HIZ023>026-280200-
BIG ISLAND OF HAWAII COAST AND LOWER SLOPES-

CITY           SKY/WX    TMP DP  RH WIND       PRES   REMARKS
KAILUA KONA    CLOUDY    92  70  48 SW9       30.00F HX  97
HILO           CLOUDY    80  70  71 NE13      30.07F
HONOKAA*         N/A     73 N/A N/A VRB1        N/A
KAWAIHAE MWT*    N/A     82 N/A N/A W10         N/A
KAWAIHAE*      NOT AVBL
SOUTH POINT*     N/A     79 N/A N/A N24G35      N/A
UPOLU AIRPORT* NOT AVBL
KAMUELA*         N/A     70  66  88 NE16G29   30.12F
HAKALAU*         N/A     67  57  71 E5G13       N/A
KALOKO-HONOKO* NOT AVBL
PALI 2*          N/A     79  63  57 SW18G26     N/A
KEALAKOMO*       N/A     84  66  54 E18G26      N/A
KAUPULEHU*     NOT AVBL
KAPAPALA*        N/A     77  64  63 E7G15       N/A
LOWER KAHUKU*  NOT AVBL
PUHE CS*       NOT AVBL
PUHO CS*       NOT AVBL
PTA KEAMUKU*   NOT AVBL
WAIKOLOA*      NOT AVBL
$$

HIZ027>028-280200-
BIG ISLAND OF HAWAII INTERIOR AND SUMMMITS-

CITY           SKY/WX    TMP DP  RH WIND       PRES   REMARKS
BRADSHAW FIELD SUNNY     77  28  16 SE14G21   30.35F
MK VISITOR CEN   N/A     63  28  27 E14         N/A
MAUNA KEA*       N/A     50   0  12 NE24        N/A
MAUNA LOA*       N/A     57  12  17 MISG        N/A
MAUNA LOA 1*   NOT AVBL
PTA KIPUKA*      N/A     75  59  57 NW8G17      N/A
PTA RANGE 17*    N/A     73  59  60 W10G18      N/A
PTA WEST*        N/A     72  63  73 W12G17      N/A
NENE CABIN*    NOT AVBL
AHUMOA*        NOT AVBL
PTA PORTABLE*  NOT AVBL
PUU MALI*        N/A     77 N/A N/A E16G29      N/A
$$

HIC003-280200-
NORTHWEST ISLANDS-

CITY           SKY/WX    TMP DP  RH WIND       PRES   REMARKS
MIDWAY ISLAND  PTSUNNY   82  68  61 NE6       30.15F
MIDWAY NOS*    NOT AVBL
FRENCH FRIGATE NOT AVBL
$$

PHZ110>124-180-280200-
BUOY REPORTS

STATION/POSITION TIME  TEMP    WIND        PRES    WAVE   SWELL
                       AIR SEA DIR/SP/G            HT/PER HT/DIR
                 (UTC) (F)     (DEG/KT/KT) (MB)    (FT/S) (FT/D)
BUOY 51001       0050   80 81  110/ 10/ 12 1019.4F   6/ 7   5/ 90
BUOY 51101       0050   80 81  110/ 12/ 14 1019.8F   6/10   5/ 60
BUOY 51100       NOT AVBL
BUOY 51002       0050   79 79   70/ 19/ 23 1015.5F   8/ 8   3/130
BUOY 51003       0050   80 80   50/ 17/ 19 1016.0F   6/ 8   5/ 90
BUOY 51004       0050      79   60/ 16/ 19 1016.1F   7/ 7   5/ 60
BARBERS PT BUOY  NOT AVBL
WAIMEA BAY BUOY  0032      78                N/A     4/11   2/ 50
KAILUA BAY BUOY  0034      80                N/A     6/11   3/ 40
LANAI BUOY       NOT AVBL
BARBERS PT 2     NOT AVBL
PAUWELA MAUI     0039      79                N/A     6/11   3/ 50
HILO             0057      79                N/A     6/11   3/ 50
KANEOHE BAY BUOY 0055      80                N/A     5/ 7   2/ 40
HANALEI KAUAI    0052      80                N/A     5/11   2/ 40
KAHULUI HARBOR   0048           40/ 18/ 25 1017.2F
HONOLULU HARBOR  0048          100/  6/ 10 1018.2F
KILO NALU        NOT AVBL
HILO HARBOR      0048           80/  4/  9 1018.1F
MOKUOLOE         0036   80 83   60/ 14/ 16 1018.6F
NAWILIWILI       0048   80      60/ 11/ 16 1018.5F
WHOTS BUOY       NOT AVBL
BUOY 51028       NOT AVBL
$$

......................KEY........................................
  SKY/WX - SKY CONDITIONS/PRESENT WEATHER
  TMP    - TEMPERATURE IN FAHRENHEIT
  DWPT   - DEWPOINT IN FAHRENHEIT
  RH     - RELATIVE HUMIDITY IN PERCENT
  WIND   - DIRECTION AND SPEED /MPH FOR ISLANDS...KTS FOR BUOYS/
  PRES   - MEAN SEA LEVEL PRESSURE IN INCHES OF HG
  VSB    - VISIBILITY IN MILES
  HX     - HEAT INDEX
  WCI    - WIND CHILL INDEX
  VRB    - VARIABLE WIND DIRECTION
  N/A    - NOT AVAILABLE



USA.gov is the U.S. government's official web portal to all federal, state and local government web resources and services.